This demonstration page uses our WeatherBlox Daily Observations layout. Learn more.

Left ArrowRight Arrow

Hourly Observations for April 11, 2018

Temp ( °F °C ) Dew Point ( °F °C ) Humidity (%) Winds ( mph kmh ) Pressure ( in mb ) Visibility ( mi km ) Precip ( " mm )
12:59 am 00:59 Mostly Clear 42 5.6 37 2.8 82 82 E 5 7 30.20 1023 7 11 0.00 0.00
1:59 am 01:59 Mostly Clear 44 6.7 33 0.6 65 65 E 8 13 30.19 1022 7 11 0.00 0.00
2:59 am 02:59 Mostly Clear 45 7.2 31 -0.6 58 58 ENE 12 19 30.18 1022 9 14 0.00 0.00
3:59 am 03:59 Mostly Clear 45 7.2 32 0 61 61 E 13 20 30.16 1021 9 14 0.00 0.00
4:59 am 04:59 Mostly Clear 45 7.2 32 0 61 61 ENE 12 19 30.16 1022 9 14 0.00 0.00
5:59 am 05:59 Partly Cloudy 44 6.7 33 0.6 65 65 ENE 7 11 30.18 1022 9 14 0.00 0.00
6:59 am 06:59 Mostly Sunny 44 6.7 33 0.6 65 65 E 8 13 30.19 1022 7 11 0.00 0.00
7:59 am 07:59 Mostly Sunny 46 7.8 34 1.1 63 63 ESE 7 11 30.21 1023 7 11 0.00 0.00
8:59 am 08:59 Mostly Sunny 48 8.9 31 -0.6 52 52 E 10 17 30.21 1023 9 14 0.00 0.00
9:59 am 09:59 Mostly Sunny 50 10 32 0 50 50 NE 10 17 30.22 1023 10 16 0.00 0.00
10:59 am 10:59 Mostly Sunny 51 10.6 31 -0.6 46 46 ENE 9 15 30.24 1024 10 16 0.00 0.00
11:59 am 11:59 Mostly Sunny 52 11.1 32 0 47 47 E 7 11 30.23 1024 10 16 0.00 0.00
12:59 pm 12:59 Mostly Sunny 53 11.7 31 -0.6 43 43 NE 12 19 30.22 1023 10 16 0.00 0.00
1:59 pm 13:59 Mostly Sunny 54 12.2 26 -3.3 34 34 ENE 9 15 30.21 1023 10 16 0.00 0.00
2:59 pm 14:59 Mostly Sunny 54 12.2 24 -4.4 31 31 ENE 8 13 30.18 1022 10 16 0.00 0.00
3:59 pm 15:59 Partly Cloudy 55 12.8 25 -3.9 31 31 NE 8 13 30.17 1022 10 16 0.00 0.00
4:59 pm 16:59 Partly Cloudy 54 12.2 26 -3.3 34 34 E 6 9 30.15 1021 10 16 0.00 0.00
5:59 pm 17:59 Mostly Sunny 54 12.2 28 -2.2 37 37 SE 6 9 30.15 1021 10 16 0.00 0.00
6:59 pm 18:59 Partly Cloudy 53 11.7 29 -1.7 40 40 S 7 11 30.15 1021 10 16 0.00 0.00
7:59 pm 19:59 Partly Cloudy 51 10.6 29 -1.7 43 43 S 7 11 30.16 1021 10 16 0.00 0.00
8:59 pm 20:59 Mostly Clear 48 8.9 29 -1.7 48 48 S 8 13 30.18 1022 10 16 0.00 0.00
9:59 pm 21:59 Mostly Clear 47 8.3 30 -1.1 52 52 S 7 11 30.19 1022 10 16 0.00 0.00
10:59 pm 22:59 Mostly Clear 46 7.8 31 -0.6 56 56 S 9 15 30.19 1022 10 16 0.00 0.00
11:59 pm 23:59 Mostly Clear 46 7.8 34 1.1 63 63 S 8 13 30.19 1022 10 16 0.00 0.00

Powered by AerisWeather